TimeCDT,TemperatureF,Dew PointF,Humidity,Sea Level PressureIn,VisibilityMPH,Wind Direction,Wind SpeedMPH,Gust SpeedMPH,PrecipitationIn,Events,Conditions,WindDirDegrees,DateUTC
12:15 AM,58.3,50.7,76,30.01,10.0,WNW,3.5,-,N/A,,Overcast,290,2013-09-12 05:15:00
12:35 AM,56.1,53.6,91,30.00,10.0,Calm,Calm,-,N/A,,Overcast,0,2013-09-12 05:35:00
12:55 AM,55.8,53.6,92,30.00,10.0,Calm,Calm,-,N/A,,Mostly Cloudy,0,2013-09-12 05:55:00
1:15 AM,55.4,51.6,87,30.01,10.0,NNW,3.5,-,N/A,,Scattered Clouds,340,2013-09-12 06:15:00
1:35 AM,55.6,50.2,82,30.01,10.0,North,9.2,-,N/A,,Clear,350,2013-09-12 06:35:00
1:55 AM,54.0,51.1,90,30.01,10.0,NNW,4.6,-,N/A,,Clear,330,2013-09-12 06:55:00
2:15 AM,53.1,50.9,92,30.01,10.0,North,5.8,-,N/A,,Clear,350,2013-09-12 07:15:00
2:35 AM,52.2,50.9,95,30.01,10.0,NNW,4.6,-,N/A,,Clear,340,2013-09-12 07:35:00
2:55 AM,51.8,50.7,96,30.01,10.0,North,3.5,-,N/A,,Clear,360,2013-09-12 07:55:00
3:15 AM,52.5,51.3,95,30.02,10.0,Calm,Calm,-,N/A,,Mostly Cloudy,0,2013-09-12 08:15:00
3:35 AM,50.5,50.0,98,30.02,10.0,Calm,Calm,-,N/A,,Scattered Clouds,0,2013-09-12 08:35:00
3:55 AM,50.4,50.2,99,30.02,10.0,Calm,Calm,-,N/A,,Clear,0,2013-09-12 08:55:00
4:15 AM,49.3,49.3,100,30.03,1.2,Calm,Calm,-,N/A,,Scattered Clouds,0,2013-09-12 09:15:00
4:35 AM,49.1,49.1,100,30.03,3.0,NNW,4.6,-,N/A,,Scattered Clouds,330,2013-09-12 09:35:00
4:55 AM,53.4,53.4,100,30.03,10.0,NNW,8.1,-,N/A,,Mostly Cloudy,330,2013-09-12 09:55:00
5:15 AM,54.0,54.0,100,30.03,10.0,NNW,6.9,-,N/A,,Overcast,340,2013-09-12 10:15:00
5:35 AM,54.5,54.0,98,30.04,10.0,NW,4.6,-,N/A,,Overcast,320,2013-09-12 10:35:00
5:55 AM,54.0,53.6,99,30.04,10.0,NW,4.6,-,N/A,,Overcast,310,2013-09-12 10:55:00
6:15 AM,53.6,52.9,97,30.04,10.0,West,4.6,-,N/A,,Mostly Cloudy,280,2013-09-12 11:15:00
6:35 AM,53.6,53.1,98,30.05,10.0,WNW,4.6,-,N/A,,Overcast,300,2013-09-12 11:35:00
6:55 AM,54.5,53.6,97,30.06,10.0,NNW,5.8,-,N/A,,Overcast,330,2013-09-12 11:55:00
7:15 AM,54.7,53.8,97,30.06,10.0,North,3.5,-,N/A,,Overcast,360,2013-09-12 12:15:00
7:35 AM,55.4,54.1,96,30.06,10.0,NNW,5.8,-,N/A,,Overcast,330,2013-09-12 12:35:00
7:55 AM,56.3,54.5,94,30.06,10.0,NNW,5.8,-,N/A,,Overcast,330,2013-09-12 12:55:00
8:15 AM,56.3,54.0,92,30.06,10.0,NNW,9.2,-,N/A,,Overcast,340,2013-09-12 13:15:00
8:35 AM,56.3,52.7,88,30.07,10.0,NNW,8.1,-,N/A,,Overcast,340,2013-09-12 13:35:00
8:55 AM,57.7,51.3,79,30.07,10.0,North,10.4,17.3,N/A,,Scattered Clouds,350,2013-09-12 13:55:00
9:15 AM,58.6,48.6,69,30.09,10.0,North,10.4,17.3,N/A,,Mostly Cloudy,360,2013-09-12 14:15:00
9:35 AM,57.4,49.1,74,30.09,10.0,NNW,9.2,16.1,N/A,,Overcast,340,2013-09-12 14:35:00
9:55 AM,59.0,48.7,69,30.10,10.0,NNW,16.1,-,N/A,,Mostly Cloudy,330,2013-09-12 14:55:00
10:15 AM,57.4,46.6,67,30.11,10.0,North,12.7,21.9,N/A,,Overcast,350,2013-09-12 15:15:00
10:35 AM,58.6,47.7,67,30.11,10.0,NNW,9.2,-,N/A,,Overcast,340,2013-09-12 15:35:00
10:55 AM,57.4,46.8,68,30.11,10.0,NNW,11.5,17.3,N/A,,Overcast,330,2013-09-12 15:55:00
11:15 AM,58.3,46.8,66,30.11,10.0,NNW,15.0,-,N/A,,Overcast,330,2013-09-12 16:15:00
11:35 AM,58.1,46.8,66,30.11,10.0,North,10.4,-,N/A,,Overcast,360,2013-09-12 16:35:00
11:55 AM,58.5,46.6,65,30.12,10.0,NNW,12.7,17.3,N/A,,Overcast,330,2013-09-12 16:55:00
12:15 PM,58.6,46.0,63,30.12,10.0,NNW,12.7,17.3,N/A,,Overcast,330,2013-09-12 17:15:00
12:35 PM,59.4,44.8,58,30.12,10.0,NW,16.1,21.9,N/A,,Overcast,320,2013-09-12 17:35:00
12:55 PM,59.5,45.0,59,30.12,10.0,NNW,11.5,-,N/A,,Overcast,340,2013-09-12 17:55:00
1:15 PM,58.3,44.2,60,30.11,10.0,North,10.4,17.3,N/A,,Overcast,350,2013-09-12 18:15:00
1:35 PM,61.0,43.3,52,30.11,10.0,North,16.1,-,N/A,,Overcast,360,2013-09-12 18:35:00
1:55 PM,60.1,43.9,55,30.12,10.0,NNW,9.2,19.6,N/A,,Overcast,340,2013-09-12 18:55:00
2:15 PM,58.6,42.6,55,30.12,10.0,NNW,13.8,24.2,N/A,,Overcast,340,2013-09-12 19:15:00
2:35 PM,58.5,43.0,56,30.12,10.0,NNW,15.0,19.6,N/A,,Mostly Cloudy,330,2013-09-12 19:35:00
2:55 PM,59.7,43.0,54,30.12,10.0,NNW,16.1,20.7,N/A,,Overcast,330,2013-09-12 19:55:00
3:15 PM,57.9,43.0,58,30.12,10.0,NNW,15.0,23.0,N/A,,Overcast,330,2013-09-12 20:15:00
3:35 PM,57.7,42.6,57,30.13,10.0,North,16.1,21.9,N/A,,Overcast,350,2013-09-12 20:35:00
3:55 PM,57.0,43.0,59,30.13,10.0,North,11.5,20.7,N/A,,Overcast,360,2013-09-12 20:55:00
4:15 PM,56.7,41.9,58,30.13,10.0,NNW,12.7,19.6,N/A,,Overcast,340,2013-09-12 21:15:00
4:35 PM,55.8,42.1,60,30.14,10.0,North,15.0,20.7,N/A,,Overcast,360,2013-09-12 21:35:00
4:55 PM,55.2,41.9,61,30.14,10.0,North,12.7,20.7,N/A,,Overcast,350,2013-09-12 21:55:00
5:15 PM,54.5,41.2,61,30.14,10.0,North,12.7,18.4,N/A,,Overcast,350,2013-09-12 22:15:00
5:35 PM,53.8,41.9,64,30.15,10.0,North,9.2,-,N/A,,Overcast,360,2013-09-12 22:35:00
5:55 PM,54.0,40.6,61,30.15,10.0,NW,12.7,-,N/A,,Overcast,320,2013-09-12 22:55:00
6:15 PM,53.4,40.6,62,30.15,10.0,North,8.1,13.8,N/A,,Overcast,350,2013-09-12 23:15:00
6:35 PM,52.3,41.4,66,30.16,10.0,North,10.4,-,N/A,,Overcast,350,2013-09-12 23:35:00
6:55 PM,51.6,41.9,69,30.16,10.0,North,8.1,-,N/A,,Overcast,350,2013-09-12 23:55:00
7:15 PM,51.1,42.1,71,30.17,10.0,North,8.1,-,N/A,Rain,Light Rain,350,2013-09-13 00:15:00
7:35 PM,50.5,42.3,73,30.17,10.0,North,8.1,-,N/A,,Overcast,360,2013-09-13 00:35:00
7:55 PM,49.1,41.7,76,30.18,10.0,North,5.8,-,N/A,,Scattered Clouds,360,2013-09-13 00:55:00
8:15 PM,48.2,41.4,77,30.18,10.0,North,5.8,-,N/A,,Clear,360,2013-09-13 01:15:00
8:35 PM,47.3,41.5,80,30.18,10.0,North,6.9,-,N/A,,Scattered Clouds,350,2013-09-13 01:35:00
8:55 PM,46.8,41.4,81,30.18,10.0,North,4.6,-,N/A,,Scattered Clouds,360,2013-09-13 01:55:00
9:15 PM,46.6,41.7,83,30.18,10.0,North,3.5,-,N/A,,Mostly Cloudy,360,2013-09-13 02:15:00
9:35 PM,47.5,42.3,82,30.18,10.0,North,3.5,-,N/A,,Overcast,350,2013-09-13 02:35:00
9:55 PM,47.5,42.3,82,30.19,10.0,North,3.5,-,N/A,,Overcast,360,2013-09-13 02:55:00
10:15 PM,47.3,42.4,83,30.20,10.0,North,4.6,-,N/A,,Overcast,350,2013-09-13 03:15:00
10:35 PM,46.6,42.4,85,30.20,10.0,Calm,Calm,-,N/A,,Mostly Cloudy,0,2013-09-13 03:35:00
10:55 PM,46.4,44.8,94,30.20,10.0,Calm,Calm,-,N/A,,Overcast,0,2013-09-13 03:55:00
11:15 PM,45.9,44.6,95,30.20,10.0,Calm,Calm,-,N/A,,Mostly Cloudy,0,2013-09-13 04:15:00
11:35 PM,45.5,44.8,97,30.20,10.0,Calm,Calm,-,N/A,,Mostly Cloudy,0,2013-09-13 04:35:00
11:55 PM,43.7,43.7,100,30.20,10.0,North,3.5,-,N/A,,Overcast,350,2013-09-13 04:55:00